Погода в Жутове 2-ом

Россия / Волгоградская область     47°48′10″N   43°51′49″E
темп.,
°C
ветер,
м/с
пор.,
м/с
влажн.,
%
обл.,
%
осадки,
мм/ч
давл.,
гПа
погр.,
м
29 ноября, пн
пн2900:00+7ююв5985100 0.0 1015172
03:00+6ююв51291100 0.0 1016292
06:00+6ююв71391100 0.0 1014304
09:00+8ююв81679100 0.0 1014349
12:00+10ю81470100 0.0 1013418
15:00+11ююв71372100 0.0 1012351
18:00+9ююв8168397 0.0 1011346
21:00+9ююв91984100 0.1 1008393
30 ноября, вт
вт3000:00+10ююв112280100 0.0 1004474
03:00+10ююв91580100 0.0 1002324
06:00+9ю61188100 2.1 1003310
09:00+12юз101788100 3.6 1002912
12:00+12зюз9158172 0.4 1003900
15:00+13зюз610721 0.4 1002962
18:00+10ююз488399 0.0 1001147
21:00+9ююв3690100 0.0 998104
1 декабря, ср
ср100:00+9ю61191100 2.0 995422
03:00+10ююз111888100 2.4 9921097
06:00+9юз142169100 0.1 9911514
09:00+3зсз162291100 0.1 994963
12:00+3з121669100 0.0 10011145
15:00+4з1015595 0.1 10031294
18:00+2з611645 0.0 1005660
21:00+1ююз4971100 0.0 1005308
2 декабря, чт
чт200:00+2зюз61295100 0.6 1005995
03:00+2з5889100 0.9 1007503
06:00+2з5898100 0.4 1009586
09:00+2з6878100 0.5 10141045
12:00+4з7962100 0.0 10151183
15:00+4зюз68596 0.0 10161069
18:00+2юз487361 0.0 1018169
21:00+1ююз49765 0.0 1018173
3 декабря, пт
пт300:00+1ююз511795 0.0 1019215
03:00+2ююз6138582 0.0 1019242
06:00+2ююз51390100 0.0 1019251
09:00+3ююз51280100 0.0 1020272
12:00+7ю6126274 0.0 1020460
15:00+7ю6115996 0.0 1019408
18:00+5ююв6136776 0.0 1019288
21:00+4ююв6147440 0.0 1019293